Tracking 30703 objects as of 14-Jun-2025
HD Live streaming from Space Station
objects crossing your sky now

GP-B

Track GP-B now!
10-day predictions
GP-B is classified as:


NORAD ID: 28230
Int'l Code: 2004-014A
Perigee: 626.6 km
Apogee: 630.7 km
Inclination: 89.8 °
Period: 97.1 minutes
Semi major axis: 6999 km
RCS: 10.7347 m2 (large)
Launch date: April 20, 2004
Source: United States (US)
Launch site: AIR FORCE WESTERN TEST RANGE (AFWTR)
Your satellite tracking list
Your tracking list is empty




NASA's NSSDC Master Catalog

Two Line Element Set (TLE):
1 28230U 04014A   25164.71752387  .00000905  00000-0  11083-3 0  9992
2 28230  89.8391  57.4757 0002893 104.6734 255.4812 14.82482292140562
Source of the keplerian elements: AFSPC